sat.trackr.live / text

‹ back to catalog

NEONSAT-1A

NORAD 67614 · 2026-019A

PAYLOAD ACTIVE UNKNOWN

§ Identity

Operator
Country
SKOR
Launch date
2026-01-30
Launch site
RLLB
Launch vehicle
Mass (kg)
RCS (m²)

External: N2YO · Heavens-Above · Gunter

§ Orbital elements

Epoch: 2026-09-20T13:07:41.749536Z

Period
95.44 min
Inclination
97.4355°
Eccentricity
0.0012095
Mean motion
15.08853077 rev/d
Perigee alt
531.3 km
Apogee alt
548.1 km
Semi-major
6,917.8 km
B*
1.5609e-4
RAAN
20.6494°
Arg perigee
220.3163°
Mean anomaly
139.7171°
Rev number
3,519

§ Raw data

NEONSAT-1A1 67614U 26019A   26263.54701099  .00002399  00000+0  15609-3 0  99922 67614  97.4355  20.6494 0012095 220.3163 139.7171 15.08853077 35199

JSON: /api/v1/satellites/67614 · /tle

For live sub-satellite position, see the globe view (requires WebGL).

§ Visibility from observer

Set your observer location to see the next 7 days of passes ≥ 10°. The values pass through the URL so the page stays shareable.

No JS? Fill the form by hand. The geolocation button needs JavaScript.